TimeEST,TemperatureF,Dew PointF,Humidity,Sea Level PressureIn,VisibilityMPH,Wind Direction,Wind SpeedMPH,Gust SpeedMPH,PrecipitationIn,Events,Conditions,WindDirDegrees,DateUTC
12:30 AM,57.2,55.4,94,29.91,4.0,SSW,10.4,-,0.04,Rain,Light Rain,200,2013-11-07 05:30:00
12:51 AM,57.9,55.9,93,29.92,9.0,SSW,11.5,-,0.06,Rain,Light Rain,200,2013-11-07 05:51:00
1:34 AM,57.2,55.4,94,29.89,9.0,SSW,9.2,-,0.05,Rain,Light Rain,210,2013-11-07 06:34:00
1:51 AM,57.9,55.9,93,29.90,5.0,SSW,12.7,-,0.07,Rain,Light Rain,210,2013-11-07 06:51:00
2:15 AM,57.2,55.4,94,29.89,3.0,WNW,12.7,-,0.09,Rain,Light Rain,290,2013-11-07 07:15:00
2:32 AM,57.2,53.6,88,29.90,4.0,WNW,16.1,-,0.21,Rain,Rain,300,2013-11-07 07:32:00
2:51 AM,55.9,54.0,93,29.90,5.0,NW,9.2,-,0.25,Rain,Rain,310,2013-11-07 07:51:00
3:18 AM,55.4,53.6,94,29.90,5.0,NW,16.1,19.6,0.06,Rain,Light Rain,310,2013-11-07 08:18:00
3:51 AM,51.1,48.0,89,29.94,9.0,NNW,15.0,-,0.11,Rain,Light Rain,340,2013-11-07 08:51:00
4:12 AM,48.2,46.4,93,29.92,10.0,NNW,20.7,25.3,0.03,Rain,Light Rain,330,2013-11-07 09:12:00
4:51 AM,48.0,46.0,93,29.96,8.0,NW,10.4,-,0.07,Rain,Light Rain,310,2013-11-07 09:51:00
5:51 AM,46.9,45.0,93,29.98,7.0,NW,11.5,-,0.04,Rain,Light Rain,310,2013-11-07 10:51:00
6:51 AM,46.9,44.1,90,29.99,2.0,NW,10.4,-,0.02,Rain,Light Rain,310,2013-11-07 11:51:00
7:04 AM,44.6,42.8,93,29.99,7.0,NNW,18.4,27.6,0.01,Rain,Light Rain,330,2013-11-07 12:04:00
7:42 AM,44.6,41.0,87,30.01,10.0,NNW,18.4,23.0,0.01,,Overcast,330,2013-11-07 12:42:00
7:51 AM,45.0,39.9,82,30.04,10.0,NNW,12.7,-,0.01,,Overcast,330,2013-11-07 12:51:00
8:33 AM,44.6,39.2,81,30.04,10.0,NW,10.4,-,N/A,,Overcast,310,2013-11-07 13:33:00
8:51 AM,44.1,39.0,82,30.06,10.0,NW,11.5,-,N/A,,Overcast,320,2013-11-07 13:51:00
9:51 AM,45.0,37.9,76,30.07,10.0,NW,13.8,-,N/A,,Overcast,320,2013-11-07 14:51:00
10:51 AM,46.9,39.0,74,30.09,10.0,NW,13.8,-,0.00,Rain,Light Rain,310,2013-11-07 15:51:00
11:51 AM,46.9,37.0,68,30.09,10.0,WNW,16.1,-,0.00,,Overcast,290,2013-11-07 16:51:00
12:51 PM,44.1,35.1,71,30.08,10.0,WNW,17.3,27.6,0.00,Rain,Light Rain,300,2013-11-07 17:51:00
1:51 PM,46.0,35.1,66,30.07,10.0,West,12.7,18.4,0.00,,Mostly Cloudy,280,2013-11-07 18:51:00
2:51 PM,46.0,30.9,56,30.07,10.0,West,13.8,23.0,N/A,,Mostly Cloudy,280,2013-11-07 19:51:00
3:51 PM,44.1,28.0,53,30.09,10.0,WNW,19.6,29.9,N/A,,Mostly Cloudy,290,2013-11-07 20:51:00
4:51 PM,42.1,23.0,47,30.12,10.0,WNW,19.6,28.8,N/A,,Mostly Cloudy,300,2013-11-07 21:51:00
5:51 PM,41.0,25.0,53,30.14,10.0,WNW,11.5,20.7,N/A,,Overcast,290,2013-11-07 22:51:00
6:51 PM,41.0,25.0,53,30.16,10.0,West,5.8,-,N/A,,Overcast,260,2013-11-07 23:51:00
7:51 PM,41.0,26.1,55,30.17,10.0,WSW,5.8,-,N/A,,Overcast,240,2013-11-08 00:51:00
8:51 PM,41.0,27.0,57,30.15,10.0,WSW,5.8,-,N/A,,Overcast,250,2013-11-08 01:51:00
9:51 PM,39.9,27.0,60,30.15,10.0,WSW,6.9,-,N/A,,Overcast,240,2013-11-08 02:51:00
10:51 PM,39.9,27.0,60,30.14,10.0,WSW,6.9,-,N/A,,Overcast,250,2013-11-08 03:51:00
11:51 PM,39.0,27.0,62,30.12,10.0,WSW,8.1,-,N/A,,Overcast,250,2013-11-08 04:51:00